Погода в Жезказгане

Погода в Жезказгане : погода сейчас, прогноз погоды и архив. Всё, что Вы хотите узнать о погоде в Жезказгане!

Хотите узнать прогноз погоды в Жезказгане? Тогда Вам сюда: Погода в Жезказгане

Поиск расширенной информации на нашем сайте:

Другие новости

Новости СМИ2

Главная страница сайта

Новости сайта

02.10.2013

Напоминаем, что на нашем новом сайте вы можете получить высокодетализированные прогнозы погоды по пунктам России, СНГ и мира (включающие важные для авиации метеовеличины, такие как направление и скорость ветра, видимость, явления погоды, количество и форма облачности, нижняя и верхняя граница облачности), а также ознакомиться с разнообразными материалами по авиационной метеорологии и подборкой полезных ссылок на эту тему.

Сайт Метеоцентр.Азия посвящён разработке технологий оптимизации авиаметеорологического обслуживания, включая проектирование и перспективное создание нескольких автоматизированных авиаметеорологических систем:
- система выпуска высокодетальных прогностических карт явлений погоды для нижнего воздушного пространства по России и ближнему зарубежью;
- система верификации прогнозов TAF (выпускаемых синоптиками официальных АМСГ РФ и ближнего зарубежья) и AUTOTAF (выпускаемых сайтом Метеоцентр.Азия) - выявление ошибок, онлайн-сопоставление с фактической погодой METAR, автоматическое внесение коррективов в прогнозы при резком отклонении фактической погоды от прогноза, подсчёт оправдываемости прогнозов по элементам и в целом;
- система обработки, анализа и отображения авиаметеорологической информации для применения провайдерами метеорологической информации.

Рекомендуем: Джинтропин цена подробнее.

Погода в Жезказгане - сегодня

Время (UTC), дата Ветер
(°,м/с) 
Видим.   Явления Облачность Т
(°С)
Тd
(°С)
f(%) Тe
(°С)
Pmin
(гПа)
dP
(гПа)
Po
(мм)
O2
(г/м3)
Тmin Tmax R s Состояние
почвы
06 27.03.17 220 (ЮЗ) 4000 м  дымка{туман}  10/10 600 м 
[Sc]
+2.9 +1.1 88 +4  1023.9  0.3  736  293  -1.3         
09 27.03.17 220 (ЮЗ) 20000 м    8/8 600 м 
[Sc]
+7.4 +4 79 +6  1021.6  -1.5  735  288           
12 27.03.17 210 (ЮЗ) 20000 м    5/5 600 м 
[Sc]
+8.3 +3 69 +7  1020.2  -1.2  734  287           
15 27.03.17 180 (Ю) 20000 м    3/3 600 м 
[Sc]
+3 -0.8 76 +1  1021.3  0.2  734  293    +8.8       
18 27.03.17 180 (Ю) 20000 м    3/3 600 м 
[Sc]
+0.1 -2.3 84 -3  1021.7  734  296    +8.8       
21 27.03.17 170 (Ю) 4000 м  дымка  ясно 
-0.9 -2.4 90 -3  1020.8  -1.1  733  297           
00 28.03.17 160 (Ю) 4000 м  дымка  ясно 
-1.2 -2.5 91 -2  1019.7  -1  733  297           
03 28.03.17 180 (Ю) 0500 м  туман  ?/?  
-0.4 -1 96 -1  1019.4  -0.2  732  296        <0.5  мокрый или
старый снег
10-40% 
06 28.03.17 220 (ЮЗ) 20000 м  {туман}  6/0 верхняя 
[Ci fib]
+8.3 +5.4 82 +6  1017.7  -0.3  732  285  -1.3         
09 28.03.17 230 (ЮЗ) 10-15{15}  20000 м    6/0 средняя, верхняя 
[Ac lent|Ci fib]
+11.7 +5.8 67 +10  1014.6  -2.5  730  281           
12 28.03.17 220 (ЮЗ) 10-15{15}  20000 м    6/0 средняя, верхняя 
[Ac lent|Ci fib]
+13.2 +5.7 60 +11  1012.4  -1.8  729  279           
15 28.03.17 180 (Ю) 7{15}  20000 м    5/0 средняя, верхняя 
[Ac lent|Ci fib]
+9.2 +5.3 77 +7  1011.4  -1.6  728  283    +13.6       
18 28.03.17 190 (Ю) 20000 м    3/0 верхняя 
[Ci fib]
+8 +4.9 81 +6  1009.6  -1.9  726  283    +13.6       
21 28.03.17 180 (Ю) 20000 м    4/0 верхняя 
[Ci fib]
+7.9 +4.8 81 +6  1006.4  -3  724  283           
00 29.03.17 230 (ЮЗ) 4000 м  дымка  9/0 средняя, верхняя 
[Ac lent|Ci fib]
+5.1 +3.5 89 +4  1008.6  1.6  725  286           
03 29.03.17 270 (З) 20000 м    10/8 600 м средняя 
[Sc|Ac lent]
+4 +1.8 86 +4  1011.3  2.4  727  288           
06 29.03.17 310 (СЗ) 20000 м    8/5 600 м средняя 
[Sc|Ac lent]
+6.3 +1.9 73 +6  1013  729  287  +3.9         
09 29.03.17 250 (З) 20000 м    8/4 600 м верхняя 
[Sc|Ci fib]
+9.2 -1.2 48 +9  1011.9  -0.7  728  284           
12 29.03.17 240 (ЮЗ) 20000 м    5/0 средняя, верхняя 
[Ac lent|Ci fib]
+11.2 -2.3 39 +11  1009.5  -2  727  281           
15 29.03.17 250 (З) 20000 м    8/0 средняя, верхняя 
[Sc|Ac lent|Ci fib]
+6.2 +1.6 72 +6  1009.4  -0.8  726  286    +11.6       
18 29.03.17 200 (Ю) 20000 м    8/3 600 м средняя 
[Sc|Ac lent]
+4.2 +2 86 +4  1008  -1.6  725  287    +11.6       
21 29.03.17 200 (Ю) 20000 м    8/3 600 м средняя 
[Sc|Ac lent]
+2.9 +0.8 86 +1  1005.2  -2.9  723  288           
00 30.03.17 250 (З) 20000 м    10/10 600 м 
[Sc]
+1.7 -0.2 87 -1  1006.8  1.4  724  290           
03 30.03.17 260 (З) 10-15{16}  20000 м    6/6 600 м 
[Sc]
+0.7 -2.5 79 -4  1008.9  1.8  725  292           
06 30.03.17 250 (З) 15-20{20}  20000 м  {ливн. осадки}  10/10 600 м кучево-дожд. 
[Cb cap]
+1.3 -2.9 74 -4  1013  3.9  728  292  +0.5         
Время (UTC), дата Ветер
(°,м/с) 
Видим.   Явления Облачность Т
(°С)
Тd
(°С)
f(%) Тe
(°С)
Pmin
(гПа)
dP
(гПа)
Po
(мм)
O2
(г/м3)
Тmin Tmax R s Состояние
почвы

Для получения пояснительной информации подведите курсор к названию столбца.

ПОГОДА в Жезказгане - архив

Всё, что Вы хотите узнать о погоде в Жезказгане - удобно и подробно!

Выберите нужную дату (начиная с 1 января 2015* года) и нажмите кнопку "Найти".
Будут отображены архивные сводки погоды по пункту Жезказган, начиная с указанной даты.


Отображать данные в формате CSV (для использования в таблицах Excel)


Внимание! Наш архив погоды предназначен исключительно для личного некоммерческого использования в познавательных целях. Если Вам необходимы официальные справки о состоянии погоды (для производственных, юридических, коммерческих и т.п. целей), обращайтесь в органы Росгидромета.

*Примечание: данная дата относится к архиву по метеостанциям СССР (Россия, СНГ, Балтия).
Архив по метеостанциям Зарубежной Европы и Азии (кроме Китая) хранится 10 дней, по другим регионам земного шара (Китай, Африка, Америка, Австралия, Океания) - 1 день.

Жезказган - район местоположения метеостанции


Название, широта, долгота, высота метеостанции:
Жезказган 47.8°ш. 67.7°д. 346 м над ур. моря [Казахстан]

Дополнительная информация

В oтличие oт бoльшинства пoгoдных сайтoв мы публикуем пoдрoбную метеoинфoрмацию в детальнoм прoфессиoнальнoм фoрмате.

Характеристики температуры и влажнoсти вoздуха измеряются на высoте 2 м в тени вдали oт зданий и деревьев.
Скoрoсть ветра измеряется на высoте 10 м (на урoвне рoста челoвека скoрoсть ветра ниже в 1.5-2 раза). Если метеoстанция нахoдится в гoрoде или в лесу, тo скoрoсть ветра занижена на 2-4 м/с пo сравнению с oткрытым местoм. Скoрoсть ветра над акватoриями крупных рек и oзёр, а также на вершинах хoлмoв на 2-5 м/с выше, чем в oбычных услoвиях.
Атмoсфернoе давление в разных тoчках местнoсти мoжет значительнo oтличаться oт давления на метеoстанции, в зависимoсти oт услoвий рельефа (при пoдъёме на 10 м давление пoнижается примернo на 1 мм рт.ст.).